Theta_e
284 284 286 290 287 284 282 282 284 283 285 285 284 285 284 287 283 282 286 294 294 297 300 302 302 302 302 302 303 303 304 304 304 303 303 303 303 303 303 302 301 301 301 301 301 302 302 302 302 302 302 302 301 300 299 299 299 299 299 298 298 297 297 297 297 298 298 299 298 298 298 298 298 297 297 297 297 297 296 296 297 296 295 295 295 296 296
285 287 288 289 289 286 286 286 285 285 285 285 287 286 285 289 286 286 292 295 295 299 301 303 303 304 303 303 304 303 302 302 302 302 302 302 302 302 301 301 301 301 301 301 301 301 301 301 301 301 301 300 298 298 297 297 297 297 297 296 296 296 295 295 296 296 296 297 296 296 296 296 296 296 296 296 296 296 296 295 295 296 295 295 295 295 294
285 285 287 288 287 284 284 285 286 286 285 286 286 287 287 289 289 289 293 294 293 299 304 303 303 303 303 302 301 301 302 302 302 301 301 301 301 301 300 300 300 301 300 300 300 300 300 300 300 300 299 298 297 296 296 296 296 296 296 295 295 295 294 295 295 295 294 294 294 294 294 294 294 294 294 295 294 294 294 294 294 295 294 293 293 294 294
280 283 285 285 286 285 282 282 286 287 286 284 286 286 288 289 288 292 293 291 291 298 302 302 302 301 301 300 300 301 301 302 301 300 300 300 300 300 299 299 300 299 299 299 299 299 299 299 299 298 297 296 296 295 296 295 295 296 295 295 294 294 294 294 293 293 293 293 293 292 293 292 292 292 293 293 293 293 293 293 293 293 293 293 293 293 293
278 283 284 284 282 281 283 281 286 289 289 286 286 286 290 291 296 291 289 292 298 300 301 299 299 300 300 300 300 300 301 301 301 300 299 299 299 299 298 298 299 299 299 299 299 299 298 298 299 298 297 296 296 296 295 295 295 294 293 293 293 292 292 292 292 292 292 291 291 291 291 291 291 291 291 291 291 291 291 293 292 291 291 292 292 292 293
277 283 284 282 277 275 278 287 293 292 289 287 288 289 290 293 294 293 294 297 300 301 300 299 298 299 300 300 302 303 301 300 299 299 300 299 299 298 298 299 299 299 299 299 299 299 298 299 299 298 298 297 296 296 295 294 293 292 292 292 291 291 291 291 291 291 291 291 290 290 290 290 290 290 290 289 290 291 291 291 291 291 291 291 291 291 292
280 283 283 278 271 276 288 293 294 293 293 292 292 293 293 292 290 293 296 299 300 301 302 301 301 301 302 302 302 301 302 301 299 298 298 298 297 297 298 298 298 298 298 298 298 298 298 298 298 298 297 296 295 294 293 292 292 292 292 291 290 290 290 290 290 290 290 290 290 289 289 289 289 289 289 289 289 290 289 289 289 289 289 290 291 291 291
279 279 278 275 275 286 293 295 295 295 294 295 296 293 294 293 293 297 297 299 301 300 300 300 301 301 301 301 302 301 301 301 299 298 297 297 297 296 297 298 298 298 298 298 298 298 300 299 299 298 296 295 294 293 293 292 292 292 291 291 290 290 290 290 290 289 289 289 289 289 289 289 288 288 288 288 288 290 290 289 289 290 290 290 290 290 291
277 277 280 279 286 288 291 291 292 294 291 293 290 287 291 295 295 298 298 299 299 299 299 299 299 300 299 296 296 300 301 300 300 299 298 297 297 298 299 299 299 299 299 299 299 299 299 298 297 297 296 295 294 293 292 292 291 291 291 290 290 290 290 290 290 289 289 289 289 288 288 288 288 287 288 288 288 290 288 288 288 289 289 289 290 289 291
280 281 279 279 278 278 285 292 293 295 290 290 291 291 288 296 296 299 299 298 298 297 298 298 298 299 296 292 293 296 299 298 296 297 298 298 298 299 299 299 299 299 299 299 300 298 297 297 297 296 295 294 293 292 292 292 291 291 290 290 290 290 289 290 289 289 289 288 288 288 288 287 287 287 288 288 288 289 287 288 288 288 290 289 290 290 290
281 279 279 277 278 279 286 291 293 294 292 292 291 287 285 292 297 300 300 298 298 297 297 297 299 297 292 291 294 296 297 296 297 296 297 297 298 298 299 298 298 298 298 298 298 298 297 296 295 295 294 294 293 292 292 291 291 290 290 290 290 290 290 289 289 289 289 288 288 287 287 287 288 287 288 288 289 288 288 288 289 288 291 289 289 290 290
279 278 277 278 277 282 289 289 291 293 293 293 289 280 281 292 298 300 299 298 297 298 298 299 299 297 292 292 294 297 297 297 297 296 295 296 297 297 298 298 298 297 298 298 296 296 295 295 295 294 294 293 293 292 291 291 291 291 291 290 290 289 289 289 289 290 289 290 289 288 287 287 288 288 289 288 287 288 288 288 288 288 289 289 288 289 290
280 282 280 279 280 286 286 289 293 294 294 289 281 279 283 295 299 300 300 299 299 299 299 300 298 294 295 297 297 297 297 296 296 296 297 297 298 297 297 297 298 297 297 297 296 295 295 295 294 294 294 293 292 292 291 290 290 291 290 290 290 289 289 289 289 289 289 288 288 288 288 288 289 289 288 287 287 287 287 288 288 288 288 288 288 289 289
282 280 281 280 276 284 290 292 295 294 290 280 281 286 291 299 299 301 300 299 299 300 300 299 294 294 297 296 297 296 296 296 295 296 296 297 297 297 297 297 297 296 296 296 295 295 294 294 295 294 294 293 292 291 290 290 290 290 290 290 290 289 289 289 289 289 289 289 290 289 289 288 287 287 287 288 288 287 287 287 287 287 288 288 288 288 289
279 274 275 278 279 285 293 294 292 293 283 283 285 290 296 301 300 300 299 300 300 301 296 294 295 295 295 295 295 296 296 295 295 295 295 295 295 295 295 295 296 297 295 295 294 294 294 294 294 294 293 292 292 291 290 290 290 290 290 290 290 290 290 290 291 289 289 289 289 290 289 288 287 286 287 287 287 287 287 287 287 287 287 287 287 287 288
281 275 278 279 283 287 292 293 287 290 289 293 292 297 296 300 300 299 299 300 301 298 295 295 295 295 294 294 295 295 295 295 295 295 296 295 295 296 296 296 296 297 295 294 293 293 293 293 293 293 293 292 292 291 290 290 290 290 290 289 290 291 290 289 290 290 290 289 287 287 288 288 287 286 287 287 287 287 286 286 286 286 286 287 287 287 287
281 282 281 284 288 289 290 290 291 290 292 294 295 297 300 299 299 301 300 299 298 296 296 296 295 294 295 294 295 294 295 295 295 294 294 295 295 295 295 295 296 296 294 293 292 292 292 293 293 293 293 293 292 291 290 291 291 291 290 290 290 289 289 289 288 287 287 287 287 287 286 286 287 287 287 287 287 286 286 286 286 286 286 287 286 286 287
288 290 289 289 288 289 290 291 291 291 292 294 295 298 298 299 300 301 299 297 296 297 297 295 295 295 295 295 295 295 295 295 295 295 294 294 295 295 295 295 295 295 294 293 293 292 292 292 292 293 293 293 292 292 291 292 291 291 291 290 290 288 288 288 288 287 287 287 286 286 286 286 287 286 286 287 287 286 286 286 286 286 286 287 286 286 286
287 285 287 287 288 288 289 290 291 291 292 292 295 297 298 299 299 297 297 296 296 296 297 296 295 295 296 295 295 295 295 295 294 294 294 294 294 294 294 294 294 294 294 293 292 292 291 291 292 292 292 293 293 292 292 291 291 291 291 290 290 288 287 287 287 286 286 287 286 285 285 284 285 287 286 284 286 287 286 285 286 286 286 286 286 286 286
282 283 286 288 288 288 288 288 289 290 291 293 295 297 298 298 297 297 297 297 296 297 296 296 295 295 296 295 294 295 295 294 294 294 294 294 295 295 295 295 295 295 294 293 293 292 292 291 292 292 292 292 292 292 291 291 290 291 291 290 289 287 287 287 287 286 287 288 288 285 285 284 285 286 285 285 286 287 287 287 286 286 286 286 286 285 285
289 289 288 287 289 288 288 288 288 290 292 294 295 296 295 296 295 296 297 297 297 297 296 297 296 295 295 295 295 294 294 294 294 294 295 295 295 295 294 295 295 295 294 294 293 293 292 291 291 291 291 291 291 291 291 291 291 291 291 290 289 287 286 286 287 288 288 287 286 285 284 285 284 284 287 288 287 286 284 283 286 287 286 287 287 286 285
283 285 286 288 286 286 287 288 289 290 292 294 294 294 295 295 295 296 296 296 297 297 297 297 296 295 295 295 295 294 294 294 294 295 295 295 295 294 295 295 295 295 295 294 293 293 291 291 291 291 291 291 291 292 292 291 292 292 291 289 288 287 286 286 286 287 287 286 287 286 284 284 285 287 286 288 287 287 288 288 287 287 288 287 288 287 287
283 287 290 287 287 286 286 287 289 290 291 294 294 294 294 295 296 296 296 295 295 296 297 298 297 296 295 295 296 295 294 294 295 295 295 295 294 294 295 295 294 294 294 294 294 293 291 290 291 291 290 290 289 289 291 292 292 292 290 290 289 287 287 287 287 288 286 286 285 285 285 284 284 284 286 287 287 288 289 289 289 289 288 288 288 289 289
289 290 290 288 286 286 288 288 289 290 291 293 293 294 295 295 296 296 297 297 296 296 296 297 298 297 296 296 295 294 294 294 294 294 295 295 295 295 295 295 294 294 293 293 293 292 290 289 290 290 290 288 289 289 290 291 291 291 291 291 289 288 288 288 287 287 286 285 286 287 286 283 283 283 283 285 286 288 288 288 289 289 289 288 288 288 288
289 289 289 288 289 289 290 290 290 290 292 294 293 293 295 295 296 297 297 297 297 297 296 296 297 297 296 295 295 294 293 294 295 294 294 294 294 295 295 294 294 293 293 293 292 290 289 289 288 289 289 288 287 288 289 289 290 290 290 290 289 288 288 287 286 286 286 285 285 285 288 287 287 283 284 284 285 286 287 287 288 288 288 288 288 288 289
291 290 291 291 291 290 291 292 291 290 291 293 293 294 296 297 297 297 297 297 297 298 297 297 296 296 296 295 294 294 293 293 293 293 294 294 294 294 293 293 294 294 293 291 290 289 288 288 288 288 288 287 287 288 289 289 290 290 289 289 289 289 288 287 287 286 286 286 286 285 284 284 284 283 283 284 286 284 285 286 285 286 286 287 287 288 288
292 293 292 290 289 288 289 288 288 290 291 292 294 295 296 297 298 298 298 298 298 298 297 297 296 296 296 295 294 294 293 292 292 293 293 293 293 293 294 294 293 292 291 290 289 288 287 288 288 288 288 288 287 288 288 288 289 289 288 288 287 286 284 286 288 288 287 286 285 285 284 284 284 284 285 282 283 285 286 286 285 285 285 286 287 287 287
290 289 290 289 287 288 287 290 291 292 293 294 295 296 297 297 297 296 296 296 297 297 297 297 296 295 294 294 294 292 292 292 292 292 292 292 293 293 293 292 291 290 290 289 288 287 288 287 287 288 288 287 288 288 288 288 289 289 288 287 288 287 287 287 287 286 285 285 285 285 286 285 283 283 282 283 284 283 283 284 284 285 284 284 284 285 286
288 290 290 290 291 290 292 293 292 292 293 295 296 296 296 296 295 295 295 296 296 296 295 295 296 295 294 294 293 292 292 292 291 291 292 292 292 292 292 291 290 289 288 288 287 287 287 287 287 288 288 287 288 288 288 288 288 288 287 287 287 287 286 287 286 286 285 284 284 284 282 282 283 283 283 283 283 284 284 284 283 283 283 283 285 286 285
289 290 291 291 292 293 292 291 291 292 293 295 295 295 296 295 294 294 294 294 295 294 295 295 294 294 294 293 293 292 292 292 292 292 291 291 290 290 290 290 289 288 287 287 286 286 287 287 288 289 288 286 287 287 288 288 288 288 288 288 287 287 287 287 286 285 285 285 283 280 282 284 284 283 283 283 283 283 285 284 283 283 285 285 285 283 285
291 291 291 291 291 292 292 291 292 293 294 294 295 294 295 295 294 294 294 294 294 294 294 294 293 293 293 293 293 293 293 292 292 291 291 290 290 290 289 289 288 287 287 287 287 287 288 288 288 289 288 288 288 287 287 287 287 286 286 286 286 284 284 283 284 287 286 285 283 284 285 284 284 284 283 283 285 285 284 283 283 284 282 283 284 284 286
290 290 289 289 290 291 292 292 292 293 293 294 294 293 294 294 293 293 293 293 294 294 293 293 292 292 293 292 292 292 292 291 291 290 289 289 289 289 289 289 289 287 288 287 287 287 288 288 289 288 287 289 288 287 287 287 286 286 286 285 285 285 283 283 286 286 285 284 284 284 283 284 285 284 284 283 284 284 283 284 284 283 283 284 285 285 285
289 287 287 288 289 291 292 292 292 292 293 293 294 294 294 295 294 294 294 293 293 293 293 293 292 292 292 292 292 291 290 290 289 289 289 288 287 287 287 288 289 288 288 287 288 288 289 290 290 288 288 289 288 288 287 287 287 286 285 285 286 285 284 283 285 286 284 283 284 285 284 283 284 284 286 285 284 281 283 283 281 282 283 283 285 285 284
291 290 290 291 292 291 291 291 293 293 293 294 294 294 294 294 294 294 293 293 293 293 293 292 292 292 292 292 290 288 288 288 287 287 287 287 286 283 284 287 288 288 288 287 287 288 289 290 290 288 288 288 288 287 287 287 287 285 285 285 285 284 285 284 284 285 285 284 284 282 283 283 283 284 284 283 283 283 282 282 281 282 283 284 284 284 284
290 290 291 291 293 294 294 294 293 293 292 292 292 293 293 293 293 293 293 292 292 292 292 292 292 292 291 289 288 288 288 288 287 287 286 286 284 283 284 285 285 286 285 286 287 289 289 289 289 288 288 288 288 288 288 287 287 286 285 286 286 286 286 284 284 285 286 286 283 284 283 284 284 282 282 283 284 282 282 282 283 282 282 284 285 285 284
292 292 292 293 293 294 294 294 294 294 293 293 292 292 292 293 292 292 292 292 292 292 292 292 291 290 289 288 288 287 288 287 287 286 285 284 282 283 285 286 286 286 286 286 286 287 286 287 285 284 288 288 288 288 288 288 287 287 286 286 286 285 285 285 285 284 284 284 284 283 283 282 282 282 282 283 283 283 284 284 282 283 283 284 283 284 284
294 293 293 292 292 293 294 294 294 294 293 292 292 292 292 292 292 292 292 292 292 292 291 291 290 290 289 289 289 288 288 287 287 286 283 281 282 285 286 286 286 286 286 288 288 285 286 286 284 283 285 286 288 288 286 284 287 286 286 286 286 285 285 284 284 285 284 283 284 283 281 282 284 283 282 284 285 284 282 283 283 283 283 283 283 283 283
292 293 292 292 292 293 294 294 294 294 293 293 293 292 292 292 292 292 292 292 291 291 291 291 291 290 289 289 289 288 287 287 286 284 282 282 284 285 285 286 285 285 286 288 287 286 286 285 283 284 286 286 287 287 284 283 283 286 286 287 287 286 285 285 284 283 284 284 282 283 283 283 283 284 284 283 283 283 283 283 283 283 284 284 283 283 283
292 293 292 292 293 293 293 294 294 294 294 292 292 292 292 292 292 292 291 291 291 291 291 291 291 290 289 289 289 288 287 285 284 283 283 284 284 286 285 286 287 287 289 287 287 288 287 285 284 285 286 286 286 285 283 282 282 286 286 286 287 286 285 284 285 284 284 283 283 283 283 282 283 284 284 285 284 283 281 283 283 283 284 285 285 286 285
291 291 291 291 291 292 293 294 294 293 293 293 292 290 290 291 292 291 291 290 291 291 291 291 290 289 289 289 288 287 285 284 284 285 285 284 284 285 285 285 286 287 286 284 288 287 285 283 284 286 287 286 286 284 283 283 283 284 285 286 286 285 285 285 284 284 284 283 283 282 283 283 283 283 283 284 283 283 284 284 284 284 284 284 285 285 285
291 291 291 291 291 292 293 293 293 293 293 292 292 291 291 291 291 290 290 290 290 291 291 291 291 290 290 289 289 287 285 283 284 286 285 285 285 284 285 286 287 287 285 286 287 286 285 284 285 285 285 285 286 284 283 282 283 285 285 285 285 285 284 284 284 284 284 284 283 284 284 284 283 283 283 283 284 284 284 284 284 284 285 286 286 285 285
291 292 292 292 292 292 292 293 293 293 292 292 291 292 292 292 291 290 290 290 290 290 291 291 289 290 290 289 287 285 284 283 284 284 286 287 286 285 285 287 286 287 286 285 285 285 285 285 285 285 285 285 285 283 283 284 284 284 285 285 285 285 285 284 284 285 284 284 284 285 284 284 284 284 284 284 284 284 284 284 284 284 285 285 285 286 286
291 292 292 293 292 291 291 292 292 292 291 291 292 292 292 292 292 291 290 290 290 290 290 290 289 288 288 287 286 285 284 283 284 284 284 285 287 288 289 288 286 287 285 285 285 285 285 285 285 285 284 285 285 283 283 285 284 285 285 284 284 284 285 285 286 285 284 284 284 284 284 284 284 284 284 284 284 284 284 284 285 285 285 286 286 286 285
293 293 292 291 291 291 292 292 291 291 290 290 290 291 291 291 291 290 290 289 289 290 290 289 289 289 288 287 286 285 283 283 284 284 285 285 286 286 285 285 285 285 284 286 285 285 285 285 285 286 284 284 284 283 285 285 285 285 286 285 285 284 284 285 284 284 284 284 284 285 284 284 284 284 284 284 284 284 284 284 285 285 286 286 286 286 286
293 293 292 291 290 290 291 291 291 291 291 290 289 289 289 289 289 290 290 290 289 289 289 289 288 288 287 287 287 287 286 286 286 285 285 284 284 287 287 284 283 283 285 285 286 286 286 285 285 284 285 284 284 283 286 285 285 285 285 285 286 285 285 285 286 285 285 285 285 285 284 284 285 285 284 285 284 285 285 285 285 285 285 286 286 286 286
292 293 292 288 290 290 291 291 291 291 289 289 288 287 286 287 288 288 289 290 289 289 289 289 288 287 287 287 287 287 286 286 286 287 289 288 288 288 286 285 285 284 284 284 286 286 286 285 284 284 284 284 284 285 286 285 285 285 285 285 285 285 286 286 285 285 285 285 285 285 284 284 284 284 285 285 285 285 285 285 285 285 285 286 286 287 287
291 291 291 291 291 291 290 290 290 289 288 288 287 286 285 285 287 287 287 288 289 288 288 288 288 288 289 289 288 286 284 284 285 285 285 286 286 285 285 285 285 284 284 285 285 286 286 286 285 284 284 284 284 286 286 286 286 286 285 285 285 285 285 286 286 286 286 285 285 285 284 285 284 285 285 284 284 284 285 285 285 285 285 285 285 285 285
291 291 291 291 290 289 288 288 288 288 288 289 288 288 287 287 287 286 286 287 286 287 287 287 287 287 287 288 288 289 289 287 285 285 285 284 284 283 284 285 286 284 285 284 285 285 284 285 285 284 284 284 285 285 286 286 286 286 285 286 286 285 285 285 285 285 286 285 285 285 285 285 284 284 284 285 285 285 285 285 285 285 286 285 285 286 286
290 290 289 289 289 289 288 288 288 288 288 288 288 288 287 287 286 286 286 286 286 286 286 286 287 287 287 287 288 288 288 289 290 289 288 286 285 285 285 284 284 284 285 286 286 286 285 284 284 284 284 283 285 285 285 285 286 286 285 286 286 286 286 286 286 286 286 286 286 285 285 285 285 285 285 285 285 285 285 285 285 285 286 286 285 285 285
287 287 287 287 288 288 288 287 287 288 288 288 288 287 286 287 286 285 285 286 287 286 286 285 285 286 285 285 285 286 286 286 287 287 286 287 286 286 285 285 285 284 285 286 286 286 284 284 284 284 285 285 285 285 285 285 286 286 286 286 286 285 285 285 284 284 285 286 286 285 285 286 286 286 286 285 285 285 285 285 285 284 284 284 286 286 286
286 287 287 287 288 288 289 290 290 288 288 288 287 286 287 287 288 286 286 286 285 285 284 284 283 283 283 283 283 284 284 284 285 285 284 285 286 285 285 285 285 285 286 285 286 286 285 285 284 285 285 285 286 286 286 286 286 286 286 286 286 286 286 285 285 286 286 286 286 286 286 286 286 286 286 286 285 285 285 285 285 285 285 286 286 286 286
288 288 287 287 287 287 287 286 286 287 287 287 286 286 287 287 286 285 284 284 286 285 285 284 282 282 282 283 284 283 283 284 284 284 284 283 284 283 285 285 285 285 285 285 286 286 285 285 285 284 284 286 286 286 285 285 287 287 286 286 285 286 286 286 286 286 286 286 286 286 286 286 286 285 285 285 285 285 285 285 285 285 285 286 286 286 286
Wind_Speed
4 2 3 2 2 3 2 6 9 12 11 10 12 12 8 9 7 8 6 11 12 14 19 21 21 22 21 21 18 15 14 13 13 14 14 14 14 13 12 10 11 12 12 11 11 11 9 10 10 9 9 9 8 8 7 6 7 6 6 8 8 8 8 7 6 6 6 6 6 6 7 7 8 8 8 7 7 7 7 8 7 8 8 8 8 9 9
3 2 2 3 4 2 1 2 5 10 13 13 14 11 7 12 6 5 14 17 14 8 16 15 13 11 12 11 12 13 15 16 15 15 14 14 14 13 12 12 11 11 11 12 11 11 9 10 10 9 9 8 7 7 7 7 7 5 8 8 8 8 8 6 6 7 7 7 7 7 7 8 8 8 8 7 8 8 8 8 8 7 8 8 8 9 9
2 1 6 10 6 2 2 4 1 2 8 15 13 8 5 6 5 2 9 13 4 1 9 10 11 11 11 12 14 16 15 16 18 16 14 14 14 13 12 12 12 11 11 11 11 10 9 10 10 9 8 8 8 8 7 7 7 5 8 8 8 7 7 6 6 7 7 7 7 8 7 7 7 8 8 7 8 8 8 9 9 8 8 8 9 9 10
1 3 8 7 6 4 3 2 3 2 6 7 3 6 6 7 6 9 11 7 2 5 12 11 13 15 16 17 17 15 14 15 17 18 16 15 14 13 13 13 12 12 12 13 12 11 10 10 9 9 8 7 8 7 7 7 6 6 8 8 8 7 6 7 7 7 7 7 8 7 7 7 7 7 7 8 8 8 8 9 8 7 10 9 8 9 8
0 2 6 7 4 3 0 2 2 4 4 2 0 2 2 2 16 12 10 11 10 15 18 18 17 18 17 16 15 14 14 14 15 17 17 15 15 15 14 14 13 13 13 13 13 12 10 9 8 7 7 9 8 7 7 5 6 8 8 8 7 7 6 7 7 7 7 8 7 7 7 7 6 7 7 8 9 9 9 7 7 9 9 9 10 9 9
1 3 6 4 6 1 5 3 1 1 2 1 5 4 4 3 2 6 4 6 13 13 15 20 21 23 22 20 14 15 16 14 13 14 16 16 15 14 12 12 13 12 10 9 9 11 11 9 8 7 7 8 7 6 6 6 8 8 9 7 7 6 7 7 7 7 7 7 7 7 6 7 7 8 8 8 7 7 7 8 8 9 9 9 9 9 9
3 2 5 5 1 8 2 4 3 4 5 3 3 6 5 3 0 5 12 15 17 15 14 15 11 11 12 14 16 13 15 16 15 16 14 14 15 15 15 14 12 12 12 12 11 11 11 10 8 9 8 8 8 7 7 8 7 9 8 7 6 6 7 6 7 7 7 7 7 7 7 7 7 8 8 8 8 7 7 7 8 8 8 9 8 8 10
2 4 3 2 5 3 5 5 4 1 3 4 7 5 4 4 2 6 11 13 14 14 13 12 11 13 13 12 12 15 11 14 17 16 15 15 16 16 14 16 15 15 15 15 13 12 10 10 8 7 8 7 9 7 6 8 8 8 7 7 6 6 7 7 7 7 7 7 7 6 7 7 8 8 8 8 8 7 6 7 7 7 8 7 9 9 9
3 2 3 2 3 7 1 2 3 8 6 10 9 8 5 2 2 7 14 15 15 15 14 14 14 15 14 11 4 2 12 11 8 15 17 17 16 15 14 15 15 13 13 13 12 11 11 10 10 8 7 8 8 7 8 7 8 7 7 7 7 7 7 7 7 7 6 7 7 7 7 8 8 8 8 8 8 6 8 7 7 8 7 7 7 8 10
4 5 3 3 2 3 7 9 2 6 1 1 1 6 1 1 2 5 15 17 18 17 16 17 17 16 15 11 8 5 6 8 13 9 11 12 13 15 14 12 13 13 12 12 12 13 12 10 9 8 7 8 8 8 8 7 8 7 7 7 6 7 7 6 6 6 6 6 7 7 7 7 7 6 6 6 7 5 6 7 8 7 6 7 7 7 8
4 4 4 3 5 6 7 8 6 5 3 5 3 4 2 3 5 9 16 16 18 22 22 20 19 16 15 15 12 9 11 11 13 16 14 14 14 14 16 17 17 15 14 14 13 13 13 12 8 8 8 9 9 9 7 7 7 7 7 6 6 7 6 5 5 5 5 6 6 6 7 7 6 7 7 6 4 4 5 5 6 5 6 7 7 8 8
3 6 3 4 4 1 2 4 3 6 4 2 0 1 7 10 12 12 16 19 20 17 20 23 21 21 17 16 14 12 13 15 13 17 17 14 13 13 13 13 15 15 14 14 13 13 13 11 10 10 8 8 8 8 7 6 7 7 6 5 4 4 4 5 5 6 5 6 6 6 7 6 7 6 4 5 7 6 6 6 6 6 6 7 8 8 8
5 6 3 3 6 4 4 3 3 4 4 3 4 8 4 12 16 16 16 19 19 21 20 17 17 2 4 8 16 16 16 15 12 11 16 18 17 16 15 14 13 14 14 15 15 14 12 11 10 9 9 9 8 7 7 7 7 6 5 4 5 5 4 5 5 5 5 5 6 6 5 5 5 6 6 6 6 6 6 6 6 8 9 8 8 8 8
8 6 5 7 4 5 2 1 6 5 4 4 7 6 1 13 15 15 16 19 18 17 17 9 6 7 18 19 16 17 17 16 14 14 13 13 12 12 13 15 14 13 12 12 12 11 10 11 10 9 9 9 8 8 7 7 6 5 4 5 5 5 5 5 4 5 5 5 5 5 5 6 6 6 5 5 5 5 6 6 8 8 8 8 7 7 7
5 3 2 0 2 2 5 9 3 1 3 4 3 0 2 11 15 16 14 16 15 17 11 11 15 18 20 19 17 17 17 18 17 16 16 17 16 15 14 13 13 14 13 13 13 12 9 9 9 9 10 10 8 7 9 7 5 5 4 5 5 5 4 4 4 4 4 5 4 4 5 5 5 6 4 5 5 6 6 7 8 8 8 7 7 7 8
6 4 4 4 2 2 1 2 6 4 4 1 5 6 9 7 12 13 12 12 14 12 15 17 18 20 20 17 17 16 16 17 17 16 15 15 15 14 13 14 14 15 14 12 12 9 9 8 8 9 11 10 8 8 8 4 4 4 4 4 5 5 4 3 3 3 3 4 4 4 4 3 5 5 5 5 5 6 6 7 7 7 7 6 6 8 8
4 5 4 1 2 4 2 1 2 2 1 1 4 3 12 14 8 10 12 14 13 14 16 17 19 19 20 18 18 19 17 17 17 16 16 17 17 15 15 15 14 13 14 14 12 10 8 9 8 8 8 11 9 9 6 5 6 5 5 5 5 4 3 3 3 2 3 3 3 3 3 3 4 4 4 5 7 6 7 7 6 6 6 6 7 7 8
1 0 2 2 2 2 4 2 2 2 0 1 3 8 8 4 10 10 13 13 14 16 17 19 16 18 18 20 17 18 18 17 16 15 14 13 13 13 12 12 13 13 13 13 14 12 9 8 8 6 6 9 11 9 6 5 6 6 6 5 4 4 3 2 1 1 2 2 2 2 2 2 1 2 3 4 5 6 6 5 5 6 6 6 7 7 7
2 0 2 3 1 3 3 2 2 2 1 1 3 6 6 9 7 8 8 12 13 14 16 19 17 19 20 19 17 16 16 17 17 17 16 15 16 16 15 13 13 13 13 13 13 12 11 6 8 7 7 7 8 7 7 5 6 6 6 6 4 3 3 3 1 1 1 0 1 2 2 2 2 2 2 4 4 3 4 5 5 6 6 6 7 7 7
1 1 1 1 1 0 2 2 0 2 2 5 4 5 6 7 8 11 11 12 13 13 15 19 20 18 18 20 18 16 15 16 15 16 16 16 14 13 13 13 14 13 13 13 13 12 11 8 7 7 7 7 7 8 6 6 5 6 6 6 6 4 4 3 2 1 1 2 1 2 2 2 3 3 3 2 2 2 2 3 5 6 6 6 7 7 7
0 1 1 1 0 2 4 3 2 1 3 7 7 9 11 12 13 12 11 11 12 13 15 18 20 19 16 19 19 18 15 15 15 15 15 15 15 14 15 13 14 13 13 14 13 12 10 7 8 7 7 7 7 8 7 6 6 7 6 5 5 4 3 2 2 1 1 1 1 2 4 4 2 2 1 1 1 2 3 3 1 2 5 5 5 4 4
1 5 4 5 4 3 1 1 1 1 1 7 9 10 12 13 15 14 14 10 10 13 15 17 20 20 16 15 18 19 16 15 15 16 16 15 16 14 12 12 13 13 13 13 13 12 9 7 8 8 7 7 7 7 7 6 6 7 6 5 4 4 3 2 2 1 1 1 0 1 3 4 4 3 2 4 4 1 2 3 4 4 3 1 3 3 5
2 4 4 4 3 2 0 3 1 2 3 7 11 12 13 13 14 15 17 15 14 14 15 14 18 19 18 16 16 17 15 15 14 13 14 15 15 14 13 14 13 12 11 11 11 11 9 7 7 8 7 6 6 6 8 7 7 8 7 6 5 4 3 4 4 3 2 2 1 0 1 2 2 2 3 2 2 5 6 5 4 2 2 3 0 2 5
0 0 6 4 2 4 4 3 3 3 2 7 8 7 7 11 13 14 16 16 17 15 15 13 16 19 18 17 16 16 14 16 17 15 13 12 9 12 12 12 12 12 11 10 11 11 8 7 7 7 7 5 6 7 7 7 7 8 7 7 6 6 5 4 3 3 2 1 0 1 0 1 1 2 3 3 3 4 5 5 4 4 4 6 7 6 5
1 2 3 2 5 8 5 5 3 3 2 6 10 9 11 11 9 11 15 15 15 16 15 14 12 15 19 16 16 17 17 15 15 16 16 14 13 12 12 12 13 12 11 10 8 8 7 7 7 7 7 5 4 6 6 7 8 8 7 6 6 5 5 3 3 3 2 2 3 2 2 1 0 1 2 3 3 4 5 5 5 5 6 7 8 8 7
9 8 8 7 7 6 6 7 6 4 4 6 8 6 8 10 11 12 14 14 14 15 16 14 13 10 15 17 14 15 16 15 15 15 13 13 13 12 12 13 12 10 9 8 8 8 7 8 8 6 6 5 6 6 7 7 8 8 8 7 7 7 5 5 5 4 4 4 4 4 3 3 2 3 2 2 1 2 4 5 6 5 5 6 6 8 8
7 10 13 11 7 4 2 3 6 5 5 5 10 9 9 11 12 11 11 12 13 13 14 15 14 12 9 13 17 17 19 16 14 13 12 13 14 13 12 11 11 10 10 9 8 8 9 8 7 7 7 6 5 5 6 6 6 6 6 6 5 7 8 6 5 6 5 4 4 4 4 4 4 3 3 3 1 0 2 3 4 4 4 6 6 2 4
3 2 2 5 7 7 3 5 7 7 8 8 10 12 11 11 12 13 13 13 13 12 13 15 16 15 13 11 15 15 15 16 15 13 13 13 11 10 10 11 11 11 10 9 8 7 8 7 7 7 6 5 5 6 6 6 6 7 6 6 6 6 5 5 5 4 5 5 4 5 5 5 4 3 2 2 2 1 1 0 1 4 4 3 4 6 7
4 4 4 6 9 7 8 8 8 8 7 8 9 10 11 14 13 13 13 12 13 13 12 12 13 16 16 13 13 15 14 13 14 14 13 11 10 10 10 11 11 10 9 8 7 7 7 7 7 7 7 5 5 6 6 6 6 7 6 6 6 6 5 5 5 5 4 3 4 4 4 4 4 3 2 2 2 2 1 1 2 2 3 4 6 6 5
4 4 8 9 9 10 11 9 9 8 8 9 11 10 11 13 12 11 12 12 13 13 12 12 12 12 14 15 14 15 15 15 14 12 11 10 10 10 11 10 9 7 7 7 7 6 8 7 8 8 7 5 5 6 7 6 6 7 7 7 7 8 7 6 5 4 4 4 4 4 4 4 3 3 2 1 2 3 3 4 3 3 5 5 3 3 4
6 6 8 8 9 7 11 9 8 9 9 9 11 12 11 12 13 11 12 11 11 12 12 13 13 13 12 13 11 11 11 11 11 11 10 10 10 10 11 12 12 10 10 10 8 7 8 8 8 8 6 6 6 6 7 6 6 5 4 4 5 7 9 10 7 6 5 5 4 4 4 4 4 3 4 3 2 2 2 3 4 2 3 3 4 4 4
10 8 8 6 7 8 8 8 8 8 8 9 11 12 12 14 14 14 12 11 12 14 14 14 14 14 11 11 11 12 12 11 10 10 10 9 9 9 9 10 11 9 8 8 8 7 7 8 8 7 6 6 6 6 6 7 7 7 7 6 6 5 6 7 5 6 5 5 5 5 5 4 4 3 3 4 4 4 2 2 4 4 4 4 5 4 4
11 8 5 5 5 7 8 6 9 8 9 9 8 9 8 9 12 12 11 12 11 11 13 13 11 11 12 12 12 12 11 11 11 11 11 10 8 8 7 9 10 10 9 8 8 8 8 9 8 6 6 6 6 7 6 7 7 7 6 6 6 6 5 6 6 5 4 5 5 5 5 5 4 4 6 6 5 3 2 1 2 3 4 4 4 4 4
12 10 12 10 12 10 10 7 7 8 6 6 6 8 8 8 10 10 11 11 11 12 12 12 12 12 12 13 12 11 11 11 10 9 9 9 8 6 5 8 9 9 9 7 6 7 7 7 6 6 6 6 6 6 6 6 6 6 6 6 6 5 6 5 5 6 6 6 6 5 3 4 4 5 5 5 4 4 3 3 4 4 3 4 3 4 4
4 5 6 4 4 8 9 9 7 8 8 9 7 7 7 8 9 10 11 13 12 11 11 12 12 12 12 12 12 12 13 13 12 12 11 10 8 6 6 6 6 6 6 5 7 8 6 6 6 5 6 6 7 6 7 6 6 6 6 7 7 7 6 5 6 6 7 7 4 4 3 4 5 4 3 4 4 4 4 4 4 4 3 4 4 3 3
9 9 6 6 5 7 9 9 7 8 8 8 8 8 8 8 10 10 11 9 9 11 12 12 12 12 12 12 11 11 11 11 11 10 10 9 8 6 7 8 8 7 7 5 5 4 4 4 6 8 7 7 7 6 7 7 6 7 7 6 6 6 5 5 5 3 3 4 5 6 5 5 4 3 4 4 2 2 3 4 4 4 5 5 4 3 3
6 10 7 7 6 6 8 8 9 9 9 9 9 9 9 9 9 7 8 9 9 11 11 12 12 12 12 11 10 8 9 10 10 10 9 7 6 7 8 8 7 8 7 8 7 4 3 4 6 8 6 6 7 7 7 9 7 6 7 7 6 6 6 5 5 5 5 5 4 4 3 2 3 3 4 4 4 4 3 4 5 5 5 5 4 4 4
4 8 10 9 8 8 7 6 8 10 9 9 8 8 10 9 8 9 9 9 9 9 10 11 11 10 10 9 10 11 9 8 9 9 8 7 7 8 7 8 7 7 8 8 5 5 5 5 6 5 4 5 5 6 7 9 9 7 7 7 7 6 6 6 6 5 4 5 4 4 4 4 5 4 4 4 5 5 5 4 4 5 5 5 4 4 3
6 5 6 6 6 7 7 7 8 8 10 11 9 8 7 10 10 10 10 8 8 9 10 10 10 11 11 11 10 9 9 8 9 9 9 8 6 9 8 8 9 10 8 4 6 7 6 6 5 5 5 5 4 3 5 7 8 7 7 7 7 7 6 6 6 6 6 5 5 5 4 4 5 5 5 6 5 5 5 5 5 5 5 5 4 5 5
7 8 8 8 7 7 8 8 8 8 8 9 10 10 8 10 9 10 10 9 8 9 10 11 12 10 10 10 10 9 8 8 8 9 9 8 6 6 4 3 4 5 2 7 8 7 8 9 7 6 6 4 4 5 4 7 7 6 6 7 7 7 7 6 6 6 5 5 5 5 5 5 6 6 6 6 5 5 5 5 5 5 5 5 5 5 4
8 8 7 8 8 7 8 8 8 8 9 8 8 8 8 10 10 10 10 11 8 9 11 11 11 11 11 11 11 9 8 6 7 8 8 8 7 7 8 8 6 5 3 4 6 7 8 8 7 6 5 5 5 5 5 6 6 6 6 7 7 7 6 6 6 6 6 6 6 6 7 6 6 6 6 6 6 5 5 5 5 5 5 6 6 5 5
7 8 8 8 7 8 7 7 8 8 7 8 9 9 9 10 11 11 10 10 9 8 10 10 13 13 10 9 8 8 7 6 5 6 9 11 10 7 8 8 5 6 6 5 6 7 7 6 6 6 5 5 5 8 7 6 5 5 6 6 7 7 7 7 7 6 6 6 6 6 6 5 6 7 6 6 6 6 6 5 5 5 6 5 6 6 6
8 9 9 8 7 8 9 9 9 9 8 7 8 9 9 9 9 9 9 10 10 9 9 8 10 11 10 9 9 9 8 6 6 6 5 3 5 11 12 8 5 6 8 5 5 6 7 7 7 6 6 7 6 9 9 6 6 6 6 6 6 6 7 7 7 6 6 6 6 6 5 6 6 7 7 7 7 7 6 6 7 7 6 6 6 6 6
8 8 8 9 8 7 8 8 7 8 8 6 4 7 9 8 10 11 11 10 9 10 9 9 9 9 10 10 10 8 7 7 6 6 7 5 1 4 2 2 5 7 11 7 6 7 7 6 6 8 9 10 8 9 7 6 6 6 6 6 6 6 6 6 6 6 6 6 6 6 6 7 7 6 7 6 6 7 6 7 6 7 7 6 6 6 6
8 8 9 9 8 8 8 8 10 10 9 7 6 6 7 8 8 10 11 11 11 9 9 10 10 9 8 9 9 10 9 9 9 9 8 7 7 8 4 4 5 5 7 8 7 7 6 7 9 11 10 11 10 9 6 6 6 7 6 6 6 6 6 6 7 6 7 7 7 7 6 7 7 7 7 7 7 7 8 8 8 8 7 7 7 7 7
6 7 8 9 9 9 9 8 6 8 9 8 6 4 4 6 9 7 9 11 10 10 10 10 10 10 10 9 7 6 6 7 7 9 10 10 9 7 6 7 5 5 8 9 6 7 7 9 10 10 11 11 10 8 7 6 6 6 6 6 6 6 7 7 7 7 7 7 7 6 6 7 6 7 7 7 8 8 9 9 8 7 7 8 8 8 8
7 6 8 8 7 6 6 7 8 9 9 8 8 6 3 4 5 7 7 7 10 10 9 9 10 10 10 11 10 8 6 4 2 4 3 3 3 6 8 10 8 8 7 6 6 7 7 7 8 11 11 10 9 7 7 6 6 6 6 6 7 7 7 7 7 7 7 7 7 7 7 7 7 7 7 7 7 8 8 8 7 9 8 8 8 8 8
8 8 6 6 8 7 8 8 9 9 10 11 10 9 7 6 6 4 4 4 4 5 6 6 6 6 6 6 8 10 11 11 8 7 5 6 3 3 5 7 8 9 9 7 7 6 7 8 9 10 10 8 7 6 6 6 6 6 6 7 7 7 7 7 7 7 7 7 7 6 6 7 7 7 7 7 8 9 8 8 8 8 8 7 7 9 9
6 7 6 6 8 9 9 8 8 8 8 6 7 7 7 7 6 6 5 5 5 5 6 5 6 5 5 6 7 6 6 8 11 9 8 7 6 6 6 6 8 10 8 7 7 6 7 8 8 8 8 8 6 6 6 6 7 7 7 7 7 7 7 7 7 7 6 7 7 7 6 7 7 7 8 8 8 8 8 9 8 8 8 8 8 8 8
5 7 7 7 7 7 7 7 7 8 7 6 7 6 7 7 7 6 6 7 7 7 6 6 6 6 6 6 6 6 6 5 4 1 6 9 8 7 6 6 6 8 8 7 6 7 6 8 8 7 7 6 6 6 6 7 7 7 8 8 8 7 7 8 6 7 7 7 6 7 7 7 7 8 8 7 7 8 7 8 8 10 13 10 8 8 7
6 7 7 7 8 8 9 10 10 9 8 7 7 8 8 9 9 8 8 7 6 6 6 5 3 4 4 4 5 5 4 4 5 4 5 6 7 8 8 7 7 6 6 7 7 7 6 5 6 5 6 6 6 7 7 8 8 9 8 8 8 8 7 8 7 8 8 8 8 8 8 8 8 8 7 8 9 8 8 9 8 8 8 8 8 8 8
9 7 7 7 7 6 4 1 2 4 5 7 8 8 8 7 6 6 5 6 8 8 8 7 6 5 5 6 6 6 5 6 5 5 4 4 6 6 6 6 6 6 7 7 7 7 6 6 6 6 7 7 7 7 8 10 8 8 8 8 7 8 8 8 8 8 8 8 8 8 9 8 8 7 8 8 8 8 8 8 8 8 8 7 7 7 7
Wind_Direction
220 182 173 188 153 190 196 202 191 193 198 168 185 205 206 147 177 207 202 181 184 184 181 172 171 168 167 164 159 148 139 130 128 133 136 136 134 134 133 128 125 129 129 123 119 114 116 111 105 101 99 92 87 78 73 72 69 68 71 70 66 62 59 56 49 50 50 45 41 35 31 30 28 26 23 21 21 23 26 27 25 24 21 18 14 15 13
220 198 188 197 161 124 29 214 226 202 176 188 189 200 178 181 207 202 164 181 203 190 183 170 155 136 129 128 127 133 140 143 139 139 140 139 139 136 133 131 131 129 126 121 119 117 117 113 108 104 98 91 84 83 78 74 73 65 75 69 71 64 59 54 52 54 54 49 43 39 35 34 32 29 26 23 24 26 27 25 23 20 19 18 17 17 9
185 320 42 43 59 83 105 340 11 191 200 188 192 167 144 99 46 94 166 164 158 95 133 131 122 120 117 121 139 146 147 145 145 143 143 141 137 135 130 133 133 128 121 117 116 114 114 108 106 101 98 95 90 83 79 77 71 68 78 75 68 67 62 53 57 55 53 47 44 39 32 36 33 30 25 24 27 28 28 25 23 19 19 18 18 13 14
279 352 55 40 31 32 72 18 3 84 148 170 183 160 201 151 154 128 121 141 189 152 128 124 132 137 143 146 148 148 153 154 148 147 145 142 139 138 137 137 134 130 127 125 122 120 115 108 107 107 102 94 88 83 78 75 76 75 75 73 72 65 59 59 55 55 51 50 46 37 37 34 33 30 28 28 29 27 25 23 18 19 22 17 15 11 10
223 2 66 49 15 36 32 256 242 273 288 293 300 314 184 175 142 122 139 212 177 157 147 144 154 153 151 148 152 148 150 153 151 145 142 142 146 142 142 141 138 136 133 131 127 120 113 107 100 96 101 95 89 88 82 86 84 76 74 74 73 66 56 57 55 52 51 53 47 41 36 35 34 34 32 32 28 23 23 15 17 24 17 15 15 9 10
218 32 75 50 51 174 225 292 345 240 238 211 165 181 180 137 127 188 174 148 132 145 150 154 159 162 169 161 156 150 147 144 143 144 146 147 139 131 133 135 131 128 123 116 113 114 111 103 102 98 87 92 91 88 91 83 81 79 82 72 71 68 60 56 55 53 55 55 51 42 38 38 39 37 36 33 27 22 17 17 21 19 15 15 11 10 9
104 91 60 46 319 233 265 297 256 230 234 240 133 73 53 358 204 118 112 131 149 164 162 156 142 120 115 129 137 147 147 143 146 145 143 139 137 138 139 136 130 124 118 115 118 113 110 112 109 103 93 94 96 87 86 85 82 84 80 80 69 67 64 58 56 54 56 55 52 44 41 42 42 40 36 30 28 20 21 19 17 12 9 11 8 6 5
83 54 53 137 238 262 305 297 281 164 161 178 101 43 15 12 298 142 126 135 134 131 123 121 120 119 113 110 130 145 149 150 144 149 150 143 142 144 147 138 137 136 136 134 129 121 116 111 105 103 107 106 96 93 91 92 86 83 86 81 75 70 64 57 55 51 57 57 52 46 44 44 44 38 36 31 27 12 18 17 14 13 14 13 9 5 3
134 152 119 203 318 332 24 349 227 186 171 181 167 158 220 8 295 152 132 128 126 119 119 119 119 117 109 106 55 118 151 155 157 154 147 145 142 137 140 137 134 131 127 124 122 117 113 111 107 105 111 108 109 107 97 89 89 90 85 78 71 68 65 58 56 52 55 61 57 50 45 47 42 37 33 26 24 17 24 18 15 14 7 5 2 7 10
113 119 53 12 18 277 276 221 233 185 196 142 173 101 324 303 281 172 137 139 132 126 125 126 127 124 121 137 167 184 154 133 121 108 112 119 127 130 126 120 121 122 119 116 119 120 116 113 120 133 134 120 115 106 100 98 96 89 84 79 75 70 64 59 58 57 57 60 60 52 49 47 42 39 35 33 30 14 28 14 18 4 360 7 8 9 11
61 76 131 202 177 237 223 223 191 189 165 175 174 65 267 231 187 174 142 140 143 143 142 138 139 142 159 177 175 174 143 133 132 129 130 133 135 135 136 137 132 130 132 130 128 122 126 134 144 139 129 122 115 110 107 106 102 97 91 87 81 78 70 63 60 60 62 61 60 57 54 44 42 40 32 30 5 12 22 22 19 2 8 13 10 15 12
118 114 103 240 202 233 323 239 177 183 167 168 61 107 262 184 171 171 153 150 149 153 151 151 157 165 164 180 181 155 141 137 139 135 132 129 128 129 130 130 131 133 130 126 130 135 141 142 141 134 128 120 118 117 117 117 107 105 103 102 100 90 80 67 62 55 51 60 56 55 52 47 42 41 28 29 20 21 20 21 18 16 14 17 16 10 1
125 140 214 329 297 274 254 230 155 131 125 88 107 181 247 170 164 168 161 156 155 153 156 165 168 179 19 107 121 134 134 129 127 131 135 138 140 139 138 136 133 132 139 142 145 146 142 140 137 133 128 124 123 125 124 116 117 121 124 113 99 94 81 72 63 59 55 59 60 51 48 50 46 42 33 31 22 26 20 16 26 25 21 14 12 4 359
159 179 171 220 238 239 177 293 151 172 122 144 200 233 214 155 160 160 160 155 158 158 159 141 84 115 112 116 127 132 133 129 130 130 125 120 121 127 132 135 135 135 138 134 130 130 136 137 135 133 132 129 130 130 124 127 140 135 120 113 104 95 84 77 70 60 58 51 52 56 46 45 46 42 27 30 31 25 21 25 28 27 20 14 8 359 353
63 63 99 344 218 245 147 123 74 178 137 225 212 202 150 155 150 151 156 154 154 153 132 118 125 120 123 130 134 134 133 132 134 134 134 134 136 137 136 138 142 138 137 139 141 140 137 134 133 136 134 133 134 134 133 150 143 127 124 115 109 103 93 81 73 65 55 53 46 42 45 42 49 43 21 33 27 28 29 26 29 27 19 10 6 4 4
147 154 165 201 222 206 298 147 178 222 196 197 185 148 120 145 147 147 148 152 153 140 131 135 132 130 127 131 135 133 135 134 135 138 138 136 136 139 141 140 144 141 139 139 135 133 132 132 133 139 139 135 139 139 149 151 122 117 115 116 111 104 96 88 70 57 55 53 50 39 40 39 47 40 27 23 36 32 27 31 27 27 17 5 11 18 12
137 189 211 241 249 249 259 223 252 266 277 172 167 152 148 146 159 149 148 151 139 137 135 133 132 132 137 138 141 138 139 137 137 140 143 144 144 145 146 147 144 141 140 140 135 131 134 134 137 141 145 137 140 142 160 140 142 138 133 122 114 109 109 95 81 55 50 54 45 42 30 44 54 34 33 27 35 18 26 25 23 25 14 12 21 12 12
206 301 237 280 347 342 327 318 262 260 155 106 98 131 131 148 145 158 155 143 139 141 139 132 136 136 139 138 143 140 141 140 140 137 134 133 134 136 135 138 141 140 137 136 137 137 138 139 137 142 142 137 141 155 155 152 147 143 133 123 119 129 128 110 97 43 62 23 29 29 17 12 68 87 63 35 40 22 25 19 18 24 12 16 19 13 16
117 269 6 27 316 305 331 337 348 13 27 63 116 120 127 136 130 108 118 135 137 140 138 133 136 138 142 138 139 139 138 140 142 144 144 145 146 145 145 146 138 136 139 139 141 141 142 149 142 149 147 146 140 140 153 153 149 142 131 128 128 135 153 143 110 65 95 16 334 347 6 359 11 25 36 50 42 24 17 15 16 20 15 19 14 12 13
125 214 282 282 220 294 322 315 53 81 65 72 76 103 107 106 103 118 128 129 131 139 137 136 136 140 142 139 142 142 144 144 144 144 144 144 141 141 138 139 138 136 139 143 145 146 148 157 147 147 147 146 145 145 146 150 151 137 134 141 147 164 177 164 153 165 206 282 309 335 340 26 14 4 10 51 51 8 355 23 26 11 14 14 16 9 358
67 339 322 276 248 46 16 356 9 341 129 118 107 110 112 115 117 122 130 138 142 140 138 137 136 139 148 145 144 142 143 144 145 146 145 144 140 138 141 143 143 145 147 146 147 146 151 152 144 147 154 151 146 148 154 156 152 137 144 144 141 149 164 145 181 174 222 304 307 342 349 347 310 226 250 287 278 308 255 197 131 73 14 3 8 359 350
321 209 213 179 126 210 194 338 243 100 119 121 120 119 124 130 131 136 132 132 134 132 139 144 140 140 144 146 143 142 144 146 146 146 144 142 138 138 138 140 141 141 145 146 148 149 149 149 146 149 155 159 155 152 152 159 150 141 145 141 143 166 167 189 230 213 199 238 292 5 12 4 359 345 281 243 221 217 298 260 232 219 199 358 308 320 6
235 242 182 149 116 87 51 184 170 135 141 129 135 143 142 140 140 140 136 134 131 136 141 145 142 141 143 146 143 140 143 143 141 140 139 141 142 140 143 141 144 145 144 146 144 146 148 149 148 151 158 162 148 148 158 160 156 149 148 151 165 179 182 212 219 217 202 211 241 13 354 356 18 19 354 352 276 244 247 279 289 290 203 240 327 65 55
319 132 142 144 142 161 153 149 132 110 134 123 116 119 130 139 143 143 138 140 140 139 139 143 145 142 140 142 142 136 134 135 135 135 136 128 131 138 141 142 145 144 145 148 151 153 150 150 151 153 156 170 159 152 158 159 154 152 158 154 177 200 203 208 198 215 218 214 121 139 14 27 69 65 60 25 343 355 35 47 41 27 28 24 16 22 49
155 125 111 90 103 95 93 109 86 83 86 127 127 133 137 135 133 136 133 136 139 139 139 140 143 144 140 141 139 138 137 135 136 141 142 142 151 147 148 149 151 152 156 158 151 147 150 148 149 154 156 170 161 150 151 154 152 154 163 166 176 198 209 208 193 192 197 214 209 179 187 184 266 74 87 80 51 355 333 359 27 40 30 22 10 1 13
113 99 91 87 84 93 112 90 61 74 92 106 110 110 121 125 130 133 135 136 138 137 134 134 133 139 137 133 130 124 122 129 138 138 146 158 155 150 150 155 155 152 149 147 148 152 150 151 151 153 155 169 169 164 154 159 160 156 166 174 175 177 191 196 181 195 206 210 201 211 202 196 195 184 187 161 140 81 21 0 349 345 346 0 5 358 357
100 114 105 77 67 92 71 124 164 151 115 114 117 120 120 122 123 120 123 127 130 132 132 131 129 126 125 132 131 132 133 137 145 152 156 156 152 153 155 152 148 145 147 147 152 157 148 144 147 155 166 179 172 161 159 162 156 152 163 165 168 187 184 173 180 194 199 192 201 197 187 201 199 199 200 201 166 102 75 42 1 336 316 324 335 11 342
91 360 48 151 176 172 130 103 113 120 121 121 121 122 125 120 121 125 125 126 127 127 129 131 130 130 127 130 127 126 133 146 148 149 148 151 151 148 146 145 142 144 146 150 151 147 143 147 152 154 171 175 163 162 159 159 158 160 162 161 167 173 186 192 195 201 197 194 191 193 203 213 201 198 182 167 196 210 194 85 13 333 319 301 299 300 322
9 30 37 91 108 117 111 103 98 102 111 118 116 117 126 127 127 128 130 131 129 128 128 131 132 133 132 136 140 141 148 146 145 147 146 143 141 143 145 142 142 143 143 143 140 146 143 144 149 150 170 172 158 159 160 161 164 161 160 165 168 177 186 199 202 205 197 163 175 200 211 190 157 140 125 180 233 197 199 205 272 251 258 301 338 345 354
45 63 87 96 108 115 109 108 114 114 118 125 124 124 128 127 127 127 127 129 131 129 131 128 128 133 137 142 148 149 147 147 146 139 134 137 139 139 140 135 122 119 124 134 149 152 150 152 152 155 175 181 162 156 157 163 170 165 169 170 172 180 191 193 191 191 172 171 175 173 188 195 173 148 127 174 289 280 293 304 304 321 322 327 353 348 331
70 70 92 100 98 100 111 117 121 123 125 127 126 127 127 124 121 122 124 126 126 127 132 133 135 139 145 142 141 133 129 132 132 133 134 135 135 138 139 142 142 154 160 167 163 160 160 162 158 166 182 166 157 156 151 154 149 145 152 173 186 196 189 182 186 185 181 161 168 165 196 213 195 167 178 195 243 304 309 323 325 323 295 282 294 299 283
83 71 68 79 104 107 106 113 120 127 131 132 132 135 142 137 135 136 135 134 139 140 138 138 141 143 138 129 128 129 131 130 129 128 129 129 134 140 142 142 142 149 158 157 162 164 163 156 169 177 171 168 158 160 155 150 143 151 171 182 182 193 195 190 191 186 162 170 173 186 196 187 219 206 180 195 220 231 251 348 326 323 319 328 311 288 283
107 95 88 98 92 113 119 130 130 132 135 139 137 133 135 138 135 137 138 137 138 142 141 140 137 133 132 130 129 129 130 129 129 130 133 136 141 148 148 142 144 146 153 164 167 166 158 166 184 152 163 166 161 164 165 159 155 159 167 175 181 181 176 191 197 165 140 148 180 210 206 210 195 189 210 210 212 192 172 221 271 292 305 290 268 276 285
152 172 173 168 152 148 141 140 132 126 116 104 115 122 121 126 132 131 134 136 137 139 142 139 136 135 133 133 133 131 131 128 134 142 146 146 150 150 145 140 144 148 154 154 153 163 175 176 163 157 157 160 163 166 169 166 152 151 155 155 158 164 176 189 173 170 172 191 212 210 200 202 201 211 213 197 182 174 195 223 246 266 290 288 269 281 296
78 86 110 115 114 127 129 131 134 125 123 122 116 112 113 119 128 136 138 142 147 144 136 134 135 134 132 133 140 145 147 150 151 149 151 151 152 145 127 112 106 110 123 157 167 174 181 168 161 154 150 164 166 169 168 170 154 150 159 163 168 171 172 161 165 176 187 202 174 172 198 210 227 232 225 180 184 180 195 217 234 248 247 277 288 303 302
112 110 104 98 105 122 125 124 122 123 122 119 120 120 120 122 125 131 138 135 127 130 134 135 134 132 136 142 146 148 145 141 143 144 147 149 146 138 130 131 133 136 147 176 227 202 169 160 163 156 155 167 174 172 170 164 160 156 162 160 164 161 165 175 179 173 177 159 179 199 202 205 192 186 191 200 182 177 201 234 243 233 227 244 253 292 295
132 130 126 122 122 122 124 127 130 126 123 123 123 119 119 123 123 115 112 119 129 136 136 134 136 143 148 148 139 132 135 141 144 148 147 141 138 137 138 136 140 146 154 168 211 195 188 183 173 159 159 168 170 164 169 161 160 166 154 160 158 165 167 172 183 186 201 210 204 181 160 153 182 200 203 193 226 236 225 243 245 231 226 239 247 249 268
130 131 136 138 138 130 125 125 126 121 118 113 115 123 128 124 121 121 123 127 131 134 136 137 135 131 129 128 133 138 142 140 135 134 136 144 151 136 141 144 157 152 159 189 184 161 185 175 162 162 171 179 174 164 166 168 159 158 163 168 172 174 179 184 190 202 200 206 196 170 174 196 204 213 222 222 230 231 229 229 235 233 227 236 241 235 234
96 92 105 119 122 122 119 121 122 124 128 129 127 123 124 125 125 123 122 122 122 126 124 122 122 125 133 138 141 139 143 144 142 140 145 153 158 146 166 177 174 173 183 178 148 172 164 161 166 176 184 193 178 152 148 160 161 164 169 171 169 178 183 184 191 203 201 182 169 191 192 213 220 214 215 221 220 226 226 225 231 233 228 223 209 226 230
126 132 135 130 127 131 128 130 130 127 126 130 133 133 136 128 131 127 125 124 135 135 129 129 131 134 142 146 146 151 155 152 151 148 148 148 146 149 156 208 210 197 157 152 162 162 165 161 165 187 191 186 176 167 154 162 170 163 166 168 176 179 189 191 190 196 195 174 195 198 203 212 216 221 223 220 221 228 234 233 232 237 239 228 221 226 229
137 135 134 129 134 135 133 133 134 133 133 131 131 136 140 133 131 129 137 140 145 144 142 144 143 148 156 160 159 154 151 151 154 154 146 134 144 158 162 195 208 200 191 171 166 161 162 167 176 181 201 180 185 171 162 156 162 169 172 175 174 182 187 186 192 202 197 200 202 198 207 208 211 222 225 227 229 229 229 226 227 233 226 219 221 219 228
143 136 132 132 133 135 132 126 124 126 132 135 137 139 141 139 140 142 142 139 141 149 149 154 155 157 160 153 138 134 140 150 151 153 163 159 163 162 167 210 195 181 180 159 158 157 165 173 185 190 180 183 183 186 173 161 162 165 174 178 187 190 195 197 202 214 212 207 207 216 213 205 205 216 219 222 232 234 229 229 236 239 239 236 232 223 218
141 140 142 139 134 133 136 141 143 140 135 143 148 147 148 141 130 128 137 143 145 149 153 152 151 143 136 136 139 146 152 152 156 165 190 230 184 169 174 203 183 182 167 158 158 163 175 188 187 200 189 181 193 184 174 172 175 176 179 182 189 197 204 203 210 209 198 200 212 214 208 208 207 212 212 217 225 226 223 223 226 228 229 227 231 230 231
147 141 140 140 144 144 137 135 130 129 135 152 150 144 141 140 143 144 147 150 152 155 152 148 150 151 150 150 146 146 149 156 161 167 166 179 230 285 293 163 174 171 169 167 172 181 187 191 197 200 194 194 193 180 176 181 184 190 195 190 193 194 204 213 221 209 206 211 210 211 209 208 210 214 210 216 224 229 229 230 232 232 233 232 232 233 239
147 148 147 144 142 139 140 141 152 161 152 137 131 142 144 143 151 153 150 153 157 162 155 153 155 155 154 157 160 167 170 175 169 159 156 176 187 225 209 148 147 155 179 175 180 190 198 198 207 205 201 197 191 183 185 186 192 196 203 207 209 207 208 210 215 214 217 218 221 221 212 210 212 211 211 218 217 221 223 223 228 227 226 231 232 234 236
143 139 136 135 145 159 164 151 132 116 122 124 120 120 143 154 153 160 161 158 159 165 166 162 160 164 164 167 168 162 163 169 175 180 175 165 180 203 173 169 178 173 176 178 181 192 211 212 206 205 210 207 191 185 197 198 195 196 202 210 218 218 219 221 219 223 218 219 223 220 219 221 216 217 215 215 217 219 227 227 232 233 226 228 230 229 232
134 137 154 156 152 135 117 116 121 122 121 126 140 160 169 162 163 163 175 175 168 167 165 166 169 173 172 166 158 146 146 162 219 258 252 231 185 146 163 173 177 176 162 180 193 204 208 207 206 205 204 204 191 197 202 204 204 205 206 214 216 220 223 225 224 226 223 225 224 223 225 222 222 225 222 225 226 225 228 225 228 232 228 228 234 235 236
145 150 152 143 130 123 117 120 125 140 155 167 172 169 169 165 166 165 156 151 148 150 158 166 171 173 176 177 176 172 166 163 181 230 211 206 212 160 150 168 182 185 188 200 212 226 208 203 205 202 199 187 187 206 209 210 211 213 215 220 220 222 223 227 231 229 229 229 226 226 228 226 227 228 228 225 228 227 226 222 225 229 229 224 229 228 227
152 146 140 130 132 137 141 149 152 162 179 171 157 166 162 153 146 144 150 149 147 155 170 176 175 178 185 188 183 188 192 184 172 197 195 178 192 198 202 185 182 180 185 196 212 229 211 207 206 203 187 179 192 201 209 212 214 217 221 221 223 222 222 224 230 226 225 227 223 221 226 229 231 226 230 230 232 233 229 228 229 227 228 225 228 230 230
118 120 126 138 141 148 155 156 173 182 167 158 166 152 145 135 138 168 166 166 173 172 172 177 184 184 184 188 199 200 190 203 235 161 150 179 184 194 199 200 196 188 191 200 213 226 214 199 197 192 185 193 201 207 210 211 215 218 224 224 222 226 223 223 233 232 228 232 231 227 229 231 235 237 237 239 238 236 231 229 230 233 232 230 231 232 231
143 149 162 169 171 170 171 176 182 172 166 165 152 151 155 169 173 167 168 161 148 154 179 186 190 187 183 194 202 200 202 205 205 177 154 177 185 194 197 202 205 207 208 212 221 230 214 201 207 195 195 201 207 210 210 213 217 221 220 220 219 218 223 223 222 228 226 223 225 229 230 235 236 239 238 237 236 237 233 231 230 230 225 225 226 229 232
166 169 168 167 167 168 164 111 110 143 141 139 143 154 168 162 140 143 143 161 167 176 176 164 203 226 194 190 189 203 201 195 189 191 183 170 176 193 204 202 208 215 214 222 233 239 227 213 213 210 209 209 214 219 225 223 223 225 224 220 217 218 220 223 220 222 229 226 223 228 231 232 231 236 240 238 235 234 233 228 226 227 226 227 227 228 232